Wind_Speed
28 27 26 25 25 25 24 21 18 16 15 13 12 10 9 10 12 15 18 19 20 20 20 19 18 18 19 20 20 19 18 16 14 13 12 10 8 7 5 3 2 1
28 28 27 26 26 26 24 22 20 18 17 15 13 12 11 11 12 14 16 18 20 22 21 21 20 19 20 22 22 22 21 19 16 15 14 12 10 9 7 5 4 4
28 29 27 26 26 25 24 23 21 20 19 17 17 16 14 14 14 14 15 17 20 22 23 22 21 21 21 23 24 24 23 22 19 17 16 15 13 10 9 8 7 6
29 29 28 26 26 25 25 25 24 22 21 20 19 19 18 16 16 15 15 17 18 21 23 23 23 22 22 24 25 26 26 25 23 20 19 17 16 13 11 10 9 8
29 29 29 28 27 27 27 26 25 24 23 22 21 21 20 19 18 17 16 17 18 19 22 24 24 24 24 25 26 28 28 27 26 24 21 20 19 17 14 13 12 11
29 29 29 29 29 29 28 27 26 25 24 24 23 23 22 21 21 20 19 19 19 19 20 22 24 25 25 25 27 29 29 29 29 26 24 22 21 20 18 16 15 14
29 29 29 30 30 30 29 28 28 27 26 26 26 25 24 23 23 22 22 21 21 21 21 22 23 25 26 26 27 29 30 31 31 29 26 24 23 22 20 19 18 17
30 30 30 30 30 30 30 29 29 29 28 28 28 27 26 26 25 25 24 23 23 23 23 23 23 24 26 27 27 29 31 32 32 32 29 27 25 23 22 22 21 20
31 31 31 31 31 31 31 30 30 30 29 29 30 29 29 29 28 28 27 26 25 25 25 25 24 23 25 26 27 28 31 32 33 34 32 30 28 26 24 24 23 23
30 31 32 32 32 32 31 31 30 30 30 30 30 31 31 31 31 30 29 28 28 27 27 26 26 25 24 25 26 28 30 33 34 35 35 33 31 29 27 26 25 25
27 29 30 31 32 32 31 31 31 31 31 31 31 31 32 32 32 32 31 31 30 29 28 27 27 26 25 25 25 27 29 32 35 36 36 35 34 32 30 28 27 27
26 27 28 28 28 29 29 29 30 31 32 32 31 31 32 33 32 32 32 32 30 30 30 29 28 28 27 26 26 26 28 31 34 36 37 37 36 34 33 31 29 29
28 27 27 26 26 26 27 28 29 30 31 31 30 31 32 33 33 32 31 32 31 30 30 30 29 29 29 28 28 27 27 29 32 36 38 38 37 36 36 34 32 31
30 28 27 26 25 24 25 26 27 27 28 29 29 29 30 32 34 33 32 32 32 31 31 31 31 31 31 30 30 29 28 28 30 34 38 39 38 38 37 36 35 33
32 30 29 27 26 26 26 26 27 26 26 27 27 27 27 29 32 33 33 32 32 32 32 32 33 33 33 32 31 31 30 29 29 32 37 39 39 39 38 38 37 36
35 33 31 30 29 28 27 27 28 28 28 28 28 28 26 27 29 32 32 31 31 32 31 32 33 33 33 33 33 32 32 31 30 31 35 39 40 40 39 39 39 39
37 35 34 32 31 31 30 30 30 30 30 30 31 31 30 28 28 30 31 29 29 29 30 30 31 31 31 32 32 33 33 33 32 32 33 37 41 41 41 40 41 41
39 37 36 35 34 34 34 33 33 33 33 33 34 34 34 32 30 30 31 30 28 28 28 29 29 30 30 30 30 32 33 34 34 33 33 36 40 42 41 41 42 43
40 39 38 37 36 36 36 37 36 36 36 35 36 37 37 35 33 31 31 31 30 29 29 29 29 30 30 29 29 30 32 34 35 35 34 35 38 41 42 41 42 43
38 38 38 38 38 38 38 38 38 37 37 37 37 37 38 37 35 33 32 32 32 31 31 30 31 31 31 31 30 29 31 34 36 37 36 36 38 40 42 42 42 43
35 36 37 38 38 38 38 38 38 37 36 37 37 38 37 37 36 35 34 33 33 33 33 32 32 33 33 33 32 31 31 32 35 37 37 37 38 40 41 43 43 43
31 34 36 37 37 37 38 37 37 36 36 36 37 38 37 37 37 36 35 34 34 34 34 34 33 34 34 34 33 32 32 33 35 37 38 39 39 40 41 43 43 44
29 31 33 34 35 36 36 37 36 36 36 36 37 37 37 37 37 36 36 36 35 35 35 34 34 34 33 34 34 34 34 35 36 37 39 40 40 41 42 43 44 45
27 28 30 32 33 34 34 35 36 37 37 37 36 36 37 37 37 37 37 37 36 36 36 36 35 35 34 34 35 35 35 37 38 39 40 40 41 43 44 45 45 46
27 27 28 30 31 31 33 35 36 37 37 37 37 37 37 38 38 38 38 38 38 37 37 37 37 37 36 35 35 35 36 37 39 41 41 41 42 44 46 47 48 48
29 29 29 30 30 31 33 35 36 37 38 38 38 38 39 39 40 40 40 40 40 39 38 37 37 38 37 35 34 35 36 37 39 42 43 43 43 45 47 49 51 51
Wind_Direction
218 219 220 219 214 212 216 219 221 224 225 226 229 229 226 221 218 222 224 223 223 225 229 232 232 231 229 229 229 230 232 232 236 238 234 228 221 216 206 202 223 224
220 220 220 217 214 213 216 220 223 227 230 230 232 234 232 230 229 229 229 226 225 227 231 234 235 235 233 232 230 231 232 232 235 238 238 236 233 228 222 217 224 225
223 222 221 218 215 215 217 221 223 226 230 232 233 234 233 233 234 236 236 233 231 232 235 238 239 240 238 236 233 232 233 232 232 235 239 241 242 240 237 233 232 232
225 224 223 220 218 218 219 223 225 226 229 232 234 236 236 236 237 238 239 241 239 237 239 241 243 243 242 239 236 234 235 234 232 234 238 242 246 248 248 246 243 242
227 226 224 222 221 221 223 225 227 228 230 232 234 236 238 239 240 242 243 245 246 244 243 243 243 245 244 242 239 235 235 236 236 236 237 240 246 250 253 255 253 253
226 225 224 223 222 223 226 227 229 230 231 233 235 237 239 241 243 246 247 247 249 250 248 245 243 244 245 244 242 239 236 236 239 240 238 238 244 250 255 258 259 258
224 224 223 223 223 225 227 228 230 232 232 233 236 238 241 244 246 248 250 251 250 251 252 250 245 243 244 245 244 242 239 237 239 242 241 240 242 248 253 258 261 262
223 223 224 224 225 226 228 230 231 232 233 234 237 240 243 246 248 250 252 254 253 252 253 254 251 246 244 244 243 243 241 239 240 242 243 242 243 246 251 256 260 263
223 224 225 226 227 228 229 231 231 232 233 235 238 241 244 246 249 251 252 254 255 254 253 256 257 253 248 245 243 242 242 240 240 242 243 243 244 246 250 254 258 262
221 223 225 226 227 229 230 231 232 233 234 236 239 242 245 247 248 250 252 252 254 256 256 258 260 260 257 252 248 244 242 241 241 241 243 243 243 244 247 252 256 260
217 219 222 223 224 227 229 230 232 234 236 238 239 242 245 248 249 250 252 253 254 257 260 261 262 263 262 259 255 250 245 243 241 241 242 243 243 243 246 250 255 258
212 214 216 218 221 224 227 230 232 236 239 240 241 242 246 249 251 251 253 255 256 258 261 263 263 263 263 262 260 256 250 246 243 241 242 243 242 243 245 248 252 256
214 214 215 217 219 223 227 231 233 237 241 243 244 243 245 250 253 253 254 256 258 258 260 262 262 262 262 262 261 259 255 250 246 242 242 243 243 243 244 247 251 254
217 217 217 219 222 224 227 231 234 237 241 245 247 246 245 249 253 255 256 256 258 259 259 261 261 260 260 260 260 260 258 254 249 245 243 243 244 243 244 246 249 252
220 219 219 221 225 227 229 233 237 239 241 246 249 249 247 248 251 255 257 256 257 259 259 259 259 258 257 257 258 259 259 258 254 248 245 244 245 245 245 246 249 251
223 221 221 222 225 229 232 235 239 242 243 246 250 253 252 250 250 253 256 256 256 257 257 257 257 257 256 256 256 258 259 259 258 253 247 246 246 246 246 246 248 251
226 223 223 223 225 230 234 236 239 242 244 245 248 252 254 253 252 252 255 257 256 256 256 256 256 257 258 256 255 255 257 258 258 256 251 248 248 248 248 247 248 250
228 225 223 224 225 229 233 237 239 241 243 244 245 248 252 253 253 253 255 258 259 258 257 256 258 260 261 261 257 254 255 256 257 257 255 251 249 250 250 248 248 249
229 227 225 224 224 227 230 234 236 238 240 242 243 245 249 252 253 252 254 257 260 261 261 260 260 262 263 264 261 256 254 254 256 257 256 254 252 251 251 251 249 249
231 229 227 226 225 226 228 232 235 237 239 241 243 245 248 252 254 254 253 255 258 261 263 264 263 263 264 265 264 261 256 254 255 256 256 255 254 252 252 252 251 250
232 230 229 228 228 228 230 232 236 239 241 243 245 248 251 254 256 257 257 256 257 259 262 265 265 265 266 266 266 265 262 257 255 256 257 256 256 254 253 253 252 251
231 230 230 230 231 232 233 236 239 241 242 244 246 249 252 255 257 259 260 260 260 260 263 266 268 268 268 268 267 266 265 262 259 257 257 257 257 257 255 254 254 253
228 228 229 231 232 234 235 237 239 241 243 245 247 250 253 257 259 259 260 262 263 264 264 266 268 268 269 269 268 265 263 263 262 260 259 258 258 258 257 256 256 255
227 226 228 230 232 234 236 238 239 241 244 246 248 251 253 255 257 258 259 261 263 265 266 266 265 265 266 267 267 265 262 261 261 261 261 260 259 257 257 258 258 257
229 226 227 229 232 234 235 237 239 241 243 245 247 249 250 251 253 255 256 258 260 263 266 267 266 266 266 267 266 266 264 261 260 259 260 260 259 258 257 258 258 258
232 230 229 231 233 234 234 236 239 240 241 243 244 246 248 248 250 252 254 256 258 261 263 267 269 270 270 268 265 264 263 262 260 259 259 260 260 259 258 258 259 259
Height
3189 3191 3193 3195 3196 3198 3199 3201 3203 3204 3205 3206 3207 3208 3209 3210 3211 3211 3212 3213 3214 3215 3215 3216 3217 3218 3218 3219 3220 3220 3221 3222 3223 3224 3225 3225 3225 3225 3225 3225 3225 3225
3187 3189 3191 3192 3194 3196 3197 3199 3201 3202 3203 3205 3206 3207 3208 3209 3209 3210 3211 3211 3212 3213 3214 3215 3215 3216 3217 3218 3218 3219 3220 3221 3222 3223 3224 3224 3224 3224 3224 3224 3225 3225
3185 3187 3189 3191 3193 3194 3196 3198 3199 3200 3202 3203 3204 3205 3206 3207 3208 3208 3209 3210 3211 3212 3212 3213 3214 3215 3216 3216 3217 3218 3218 3219 3220 3221 3222 3223 3223 3224 3224 3224 3224 3224
3183 3185 3187 3189 3191 3193 3194 3196 3197 3198 3200 3201 3202 3203 3204 3205 3206 3207 3208 3208 3209 3210 3211 3212 3212 3213 3214 3215 3216 3216 3217 3218 3219 3220 3221 3222 3222 3223 3223 3223 3223 3223
3181 3183 3185 3187 3188 3190 3192 3193 3195 3196 3198 3199 3200 3201 3202 3203 3204 3205 3206 3207 3207 3208 3209 3210 3210 3211 3212 3213 3214 3215 3216 3217 3217 3218 3219 3220 3221 3222 3222 3222 3222 3222
3178 3180 3182 3184 3186 3188 3189 3191 3192 3194 3196 3197 3198 3199 3200 3201 3202 3203 3204 3205 3206 3206 3207 3207 3208 3209 3210 3211 3212 3213 3214 3215 3215 3216 3218 3218 3219 3220 3221 3221 3221 3221
3175 3177 3179 3181 3183 3185 3186 3188 3190 3192 3193 3195 3196 3197 3198 3199 3200 3201 3202 3203 3204 3204 3205 3205 3206 3207 3208 3209 3210 3211 3212 3213 3214 3214 3216 3217 3217 3218 3219 3219 3220 3220
3172 3174 3176 3178 3180 3182 3184 3186 3187 3189 3191 3192 3193 3194 3196 3197 3198 3199 3200 3201 3202 3202 3203 3203 3204 3205 3206 3206 3207 3208 3210 3211 3212 3212 3213 3215 3215 3216 3217 3218 3218 3219
3168 3171 3173 3175 3177 3179 3181 3183 3185 3187 3188 3189 3191 3192 3193 3194 3195 3197 3198 3198 3199 3200 3201 3201 3201 3203 3203 3204 3205 3206 3207 3208 3209 3210 3211 3212 3213 3214 3215 3216 3216 3217
3165 3168 3170 3172 3174 3176 3178 3180 3182 3184 3185 3187 3188 3189 3190 3191 3193 3194 3195 3196 3197 3197 3198 3199 3199 3200 3201 3202 3202 3203 3204 3205 3207 3207 3208 3210 3211 3212 3213 3213 3214 3214
3162 3164 3166 3168 3170 3172 3175 3177 3179 3181 3182 3184 3186 3187 3187 3188 3190 3191 3192 3193 3194 3195 3196 3197 3197 3198 3199 3200 3200 3201 3202 3203 3204 3205 3206 3207 3208 3209 3210 3211 3211 3212
3159 3161 3163 3165 3167 3170 3172 3174 3176 3177 3179 3180 3182 3184 3185 3185 3186 3188 3189 3190 3191 3193 3193 3194 3195 3195 3196 3197 3198 3198 3199 3200 3201 3202 3203 3204 3205 3206 3207 3208 3209 3209
3157 3159 3161 3163 3165 3167 3169 3171 3173 3174 3176 3177 3179 3181 3182 3182 3183 3184 3186 3187 3188 3190 3190 3191 3192 3192 3193 3194 3195 3195 3196 3197 3198 3199 3200 3201 3202 3203 3204 3205 3206 3206
3154 3157 3159 3161 3163 3165 3167 3168 3170 3172 3173 3174 3176 3177 3179 3180 3180 3181 3183 3184 3185 3186 3187 3188 3188 3189 3189 3190 3191 3192 3193 3193 3195 3195 3196 3197 3198 3200 3201 3202 3203 3203
3152 3154 3156 3159 3161 3163 3164 3166 3167 3169 3171 3172 3172 3174 3176 3177 3178 3178 3179 3180 3182 3182 3184 3184 3184 3185 3186 3187 3188 3189 3190 3190 3191 3192 3193 3194 3195 3196 3197 3198 3199 3200
3149 3151 3153 3156 3158 3160 3161 3163 3165 3166 3168 3169 3170 3170 3172 3174 3175 3175 3175 3176 3178 3179 3180 3180 3180 3181 3182 3183 3185 3186 3187 3187 3188 3189 3190 3190 3191 3193 3194 3195 3196 3196
3145 3148 3150 3152 3155 3157 3158 3160 3162 3164 3165 3167 3167 3168 3169 3170 3172 3172 3172 3173 3174 3175 3176 3176 3177 3177 3178 3180 3181 3183 3184 3184 3185 3185 3187 3187 3188 3189 3190 3191 3192 3193
3141 3144 3147 3149 3152 3154 3156 3157 3159 3161 3162 3164 3165 3165 3166 3167 3168 3169 3170 3170 3171 3172 3173 3173 3174 3174 3175 3176 3178 3179 3180 3181 3181 3182 3183 3184 3184 3185 3186 3188 3189 3189
3137 3140 3143 3145 3148 3150 3152 3154 3156 3158 3159 3160 3162 3162 3163 3164 3165 3167 3167 3168 3168 3168 3169 3170 3170 3171 3171 3172 3174 3175 3177 3177 3177 3178 3178 3179 3180 3181 3182 3183 3184 3185
3134 3137 3140 3142 3144 3147 3149 3151 3152 3154 3156 3157 3158 3159 3160 3160 3161 3163 3164 3165 3165 3165 3166 3166 3167 3167 3168 3169 3170 3172 3173 3174 3174 3174 3174 3175 3176 3176 3177 3178 3180 3180
3130 3134 3136 3139 3141 3143 3146 3148 3149 3151 3152 3153 3154 3155 3156 3157 3158 3159 3160 3161 3162 3162 3162 3163 3163 3164 3164 3165 3167 3168 3169 3170 3170 3169 3169 3170 3171 3171 3172 3173 3175 3175
3127 3130 3133 3135 3138 3140 3142 3144 3146 3147 3149 3150 3151 3152 3152 3153 3154 3155 3156 3157 3158 3159 3159 3159 3160 3160 3161 3162 3163 3165 3165 3165 3166 3165 3165 3165 3165 3166 3167 3169 3170 3170
3124 3127 3129 3132 3134 3136 3138 3140 3142 3144 3145 3146 3147 3148 3149 3150 3150 3151 3152 3153 3154 3155 3155 3156 3156 3157 3157 3158 3158 3160 3161 3161 3161 3161 3161 3161 3161 3161 3162 3163 3164 3165
3121 3124 3126 3128 3131 3133 3135 3137 3139 3141 3142 3143 3144 3145 3146 3146 3147 3148 3148 3149 3149 3150 3151 3152 3153 3153 3153 3154 3154 3155 3156 3157 3157 3157 3156 3157 3157 3157 3157 3157 3158 3160
3119 3121 3123 3125 3127 3130 3132 3134 3136 3137 3138 3139 3140 3141 3142 3142 3143 3143 3144 3144 3145 3145 3146 3147 3148 3148 3149 3149 3150 3150 3151 3152 3152 3152 3152 3152 3152 3152 3152 3152 3152 3153
3117 3119 3120 3122 3125 3127 3129 3130 3132 3133 3134 3135 3136 3137 3137 3138 3138 3138 3139 3140 3140 3141 3141 3142 3143 3143 3144 3145 3146 3145 3146 3146 3146 3146 3146 3147 3147 3147 3147 3146 3146 3146